N3OZD-10 Weather Reports


time (UTC)temp
F
wind
direction
speed
knots
gust
knots
rain 1hr
in
rain 24hr
in
rain mn
in
humidity
%
barometer
mb
20260505052309 57 284 0.0 0.0 0.00 0.05 0.00 73 1010.7
20260505052227 57 284 0.0 0.0 0.00 0.05 0.00 73 1010.7
20260505051315 57 284 0.0 0.0 0.00 0.05 0.00 73 1010.6
20260505051225 57 284 0.0 0.0 0.00 0.05 0.00 73 1010.6
20260505050726 57 284 0.0 0.0 0.00 0.05 0.00 72 1010.6
20260505050225 57 284 0.0 0.0 0.00 0.05 0.00 72 1010.6
20260505041726 58 284 0.0 0.0 0.00 0.09 0.00 67 1010.5
20260505040725 59 284 0.0 0.0 0.00 0.09 0.00 65 1010.4
20260505040306 60 284 0.0 0.0 0.00 0.09 0.00 64 1010.3
20260505040225 60 284 0.0 0.0 0.00 0.09 0.00 64 1010.3
20260505035726 60 284 0.0 0.0 0.00 0.09 0.00 63 1010.3
20260505035225 60 284 0.0 0.0 0.00 0.09 0.00 63 1010.3
20260505034725 61 284 0.0 0.0 0.00 0.09 0.10 63 1010.3
20260505034225 61 284 0.0 0.0 0.00 0.09 0.10 63 1010.3
20260505033725 61 284 0.0 0.0 0.00 0.09 0.10 63 1010.3
20260505033227 61 284 0.0 0.0 0.00 0.10 0.10 62 1010.3
20260505032725 61 284 0.0 0.0 0.00 0.10 0.10 61 1010.4
20260505031726 61 284 0.0 0.0 0.00 0.10 0.10 61 1010.3
20260505031225 62 284 0.0 0.0 0.00 0.10 0.10 60 1010.4
20260505030725 62 284 0.0 0.0 0.00 0.10 0.10 61 1010.3
20260505030226 61 284 0.0 0.0 0.00 0.10 0.10 61 1010.4
20260505025727 61 284 0.0 0.0 0.00 0.10 0.10 61 1010.3
20260505025225 61 284 0.0 0.0 0.00 0.10 0.10 60 1010.3
20260505024725 62 284 0.0 0.9 0.00 0.10 0.10 60 1010.3
20260505024225 62 278 0.0 0.0 0.00 0.10 0.10 60 1010.3
20260505023725 62 278 0.0 0.0 0.00 0.10 0.10 59 1010.3
20260505023227 62 278 0.0 0.0 0.00 0.13 0.10 58 1010.3
20260505022726 62 278 0.0 0.9 0.00 0.13 0.10 59 1010.3
20260505022225 62 289 0.9 1.7 0.00 0.13 0.10 59 1010.3
20260505021726 62 225 0.0 0.0 0.00 0.13 0.10 58 1010.3
20260505021225 62 225 0.0 0.0 0.00 0.13 0.10 59 1010.4
20260505020725 62 225 0.0 0.0 0.00 0.13 0.10 59 1010.4
20260505020226 62 225 0.0 0.0 0.00 0.13 0.10 59 1010.5
20260505015726 62 225 0.0 0.0 0.00 0.13 0.10 59 1010.4
20260505015225 62 225 0.0 0.0 0.00 0.13 0.10 58 1010.3
20260505014726 62 225 0.0 0.0 0.00 0.13 0.10 58 1010.2
20260505014228 62 225 0.0 0.0 0.00 0.13 0.10 58 1010.2
20260505013726 62 225 0.0 0.0 0.00 0.13 0.10 57 1010.2
20260505013225 63 225 0.0 0.0 0.00 0.13 0.10 56 1010.2
20260505012725 63 225 0.0 0.0 0.00 0.13 0.10 55 1010.2
20260505012225 62 225 0.0 0.0 0.00 0.13 0.10 55 1010.0
20260505011725 63 225 0.0 0.0 0.00 0.13 0.10 54 1010.0
20260505011225 63 225 0.0 0.0 0.00 0.13 0.10 54 1010.0
20260505010725 63 225 0.0 0.0 0.00 0.13 0.10 54 1009.9
20260505010225 63 225 0.0 0.0 0.00 0.13 0.10 53 1009.9
20260505005726 64 225 0.0 0.0 0.00 0.13 0.10 53 1010.0
20260505005225 64 225 0.0 0.0 0.00 0.13 0.10 52 1009.9
20260505004725 64 225 0.0 0.0 0.00 0.13 0.10 52 1009.9
20260505004225 64 225 0.0 0.0 0.00 0.13 0.10 51 1009.9
20260505003725 64 225 0.0 0.0 0.00 0.13 0.10 50 1009.9
20260505003230 64 225 0.0 0.0 0.00 0.13 0.10 49 1009.8
20260505002726 65 225 0.0 1.7 0.00 0.13 0.10 48 1009.8
20260505002225 65 241 0.0 0.0 0.00 0.13 0.10 47 1009.9
20260505001725 65 241 0.0 0.0 0.00 0.13 0.10 47 1009.8
20260505001225 65 241 0.0 2.6 0.00 0.13 0.10 46 1009.8
20260505000725 65 261 0.0 2.6 0.00 0.13 0.10 45 1009.7
20260505000226 66 247 0.0 1.7 0.00 0.13 0.10 44 1009.8
20260504235727 66 262 0.9 1.7 0.00 0.13 0.10 43 1009.7
20260504235225 66 281 0.9 2.6 0.00 0.13 0.10 43 1009.7
20260504234732 66 288 1.7 3.5 0.00 0.13 0.10 43 1009.7
20260504234228 67 260 0.9 4.3 0.00 0.13 0.10 43 1009.7
20260504233728 67 285 2.6 2.6 0.00 0.13 0.10 43 1009.7
20260504233226 67 268 0.0 2.6 0.00 0.13 0.10 43 1009.8
20260504232726 68 289 2.6 3.5 0.00 0.13 0.10 41 1009.7
20260504232225 68 303 2.6 5.2 0.00 0.13 0.10 41 1009.7
20260504231225 68 281 4.3 6.1 0.00 0.13 0.10 40 1009.8
20260504230725 68 272 3.5 4.3 0.00 0.13 0.10 41 1009.7
20260504230225 68 267 0.0 2.6 0.00 0.13 0.10 42 1009.7
20260504225727 68 286 1.7 5.2 0.00 0.13 0.10 42 1009.7
20260504225225 68 247 2.6 5.2 0.00 0.13 0.10 40 1009.7
20260504224725 68 289 0.9 3.5 0.00 0.13 0.10 40 1009.7
20260504224225 68 240 1.7 4.3 0.00 0.13 0.10 40 1009.7
20260504223725 68 264 1.7 3.5 0.00 0.13 0.10 40 1009.6
20260504223226 69 257 1.7 2.6 0.00 0.13 0.10 41 1009.7
20260504222727 69 277 1.7 6.1 0.00 0.13 0.10 38 1009.6
20260504222228 70 296 2.6 4.3 0.00 0.13 0.10 40 1009.6
20260504221726 70 270 2.6 3.5 0.00 0.13 0.10 39 1009.6
20260504221225 70 268 1.7 4.3 0.00 0.13 0.10 40 1009.5
20260504220725 70 250 0.9 4.3 0.00 0.13 0.10 37 1009.6
20260504220225 70 272 3.5 5.2 0.00 0.13 0.10 39 1009.5
20260504215725 70 270 2.6 5.2 0.00 0.13 0.10 38 1009.6
20260504215225 70 305 1.7 2.6 0.00 0.13 0.10 37 1009.6
20260504214725 70 289 2.6 3.5 0.00 0.13 0.10 38 1009.6
20260504214225 71 277 1.7 7.0 0.00 0.13 0.10 39 1009.6
20260504213725 70 268 2.6 4.3 0.00 0.13 0.10 36 1009.6
20260504213226 70 282 1.7 5.2 0.00 0.13 0.10 36 1009.6
20260504212731 70 248 5.2 5.2 0.00 0.13 0.10 34 1009.6
20260504212225 71 272 0.9 3.5 0.00 0.13 0.10 38 1009.6
20260504211725 71 267 1.7 5.2 0.00 0.13 0.10 36 1009.6
20260504211225 70 271 2.6 4.3 0.00 0.13 0.10 36 1009.6
20260504210725 70 277 3.5 5.2 0.00 0.13 0.10 36 1009.7
20260504210225 71 299 1.7 3.5 0.00 0.13 0.10 38 1009.6
20260504205725 71 270 2.6 4.3 0.00 0.13 0.10 37 1009.6
20260504205225 70 261 0.0 1.7 0.00 0.13 0.10 41 1009.7
20260504204725 70 258 1.7 4.3 0.00 0.13 0.10 37 1009.8
20260504204225 70 278 2.6 4.3 0.00 0.13 0.10 39 1009.8
20260504203725 70 282 3.5 5.2 0.00 0.13 0.10 39 1009.8
20260504203228 70 253 0.9 3.5 0.00 0.13 0.10 38 1009.8
20260504202725 70 253 0.9 5.2 0.00 0.13 0.10 36 1009.8
20260504202225 70 261 2.6 4.3 0.00 0.13 0.10 39 1010.0
20260504201726 69 277 1.7 5.2 0.00 0.13 0.10 36 1010.1
20260504201225 70 250 2.6 5.2 0.00 0.13 0.10 39 1010.1
20260504200725 70 255 1.7 7.0 0.00 0.13 0.10 36 1010.1
20260504200225 69 250 2.6 3.5 0.00 0.13 0.10 37 1010.3
20260504195726 70 295 2.6 4.3 0.00 0.13 0.10 36 1010.4
20260504195226 70 254 3.5 3.5 0.00 0.13 0.10 36 1010.5
20260504194725 70 270 1.7 7.0 0.00 0.13 0.10 36 1010.5
20260504194225 69 293 0.9 3.5 0.00 0.13 0.10 40 1010.6
20260504193725 69 257 0.9 4.3 0.00 0.13 0.10 40 1010.7
20260504192726 70 254 2.6 4.3 0.00 0.13 0.10 37 1010.9
20260504192225 70 250 1.7 4.3 0.00 0.13 0.10 41 1011.0
20260504191726 70 247 1.7 4.3 0.00 0.13 0.10 42 1010.9
20260504191226 70 254 0.9 5.2 0.00 0.13 0.10 37 1011.0
20260504190725 70 247 1.7 4.3 0.00 0.13 0.10 33 1011.1
20260504190226 70 246 1.7 5.2 0.00 0.13 0.10 39 1011.2
20260504185725 70 257 0.9 5.2 0.00 0.13 0.10 35 1011.3
20260504185226 70 291 1.7 3.5 0.00 0.13 0.10 37 1011.4
20260504184725 70 281 2.6 7.0 0.02 0.13 0.10 36 1011.5
20260504184226 71 296 1.7 5.2 0.03 0.13 0.10 38 1011.5
20260504183726 70 309 5.2 7.0 0.03 0.13 0.10 34 1011.5
20260504183225 70 309 2.6 6.1 0.03 0.13 0.10 35 1011.5
20260504182726 70 275 3.5 6.1 0.03 0.13 0.10 39 1011.4
20260504182226 70 275 2.6 6.1 0.03 0.13 0.10 33 1011.5
20260504181726 70 310 3.5 7.0 0.03 0.13 0.10 38 1011.5
20260504181226 71 261 4.3 5.2 0.03 0.13 0.10 34 1011.6
20260504180726 72 258 0.9 5.2 0.03 0.13 0.10 34 1011.7
20260504180226 72 329 3.5 7.0 0.03 0.13 0.10 35 1011.8
20260504175726 72 253 0.9 6.1 0.03 0.13 0.10 34 1011.8
20260504175226 71 326 3.5 3.5 0.03 0.13 0.10 34 1011.9
20260504174726 72 230 0.0 5.2 0.01 0.11 0.08 34 1011.9
20260504174226 71 206 0.9 4.3 0.00 0.10 0.07 35 1012.0
20260504173726 71 334 3.5 7.0 0.00 0.10 0.07 32 1012.1
20260504173226 71 300 4.3 6.1 0.00 0.10 0.07 33 1012.2
20260504172727 71 253 2.6 5.2 0.00 0.10 0.07 32 1012.2
20260504172226 71 209 0.0 7.8 0.00 0.10 0.07 31 1012.3
20260504171728 71 322 0.0 5.2 0.00 0.10 0.07 36 1012.3
20260504171227 70 322 0.9 7.0 0.00 0.10 0.07 33 1012.3
20260504170726 69 312 6.1 7.8 0.00 0.10 0.07 34 1012.2
20260504170226 69 288 0.9 6.1 0.00 0.10 0.07 34 1012.5
20260504160226 67 267 0.0 3.5 0.00 0.11 0.07 36 1013.3
20260504150226 65 282 0.9 3.5 0.00 0.11 0.07 43 1013.8
20260504141227 60 316 2.6 4.3 0.00 0.11 0.07 48 1014.1
20260504140726 58 257 2.6 3.5 0.00 0.11 0.07 48 1014.1
20260504140226 61 267 0.0 2.6 0.00 0.11 0.07 46 1014.1
20260504130727 58 320 0.0 2.6 0.00 0.11 0.07 56 1014.4
20260504130226 58 336 2.6 4.3 0.00 0.11 0.07 53 1014.4
20260504120226 53 264 0.0 0.0 0.00 0.11 0.07 67 1014.7
20260504110226 47 322 0.0 0.0 0.01 0.10 0.06 74 1015.1
20260504100414 46 322 0.0 0.0 0.00 0.09 0.05 73 1015.1
20260504100226 46 322 0.0 0.0 0.00 0.09 0.05 73 1015.1
20260504081736 49 310 0.0 0.0 0.00 0.09 0.05 57 1015.4
20260504081226 49 310 0.0 0.0 0.00 0.09 0.05 58 1015.4
20260504080726 49 310 0.0 0.0 0.00 0.09 0.05 58 1015.3
20260504080227 49 310 0.0 0.0 0.00 0.09 0.05 58 1015.3
20260504070230 48 322 3.5 3.5 0.00 0.09 0.05 57 1015.2
20260504060227 45 327 0.0 0.0 0.01 0.09 0.05 68 1015.5